| time (UTC) | temp F | wind direction | speed MPH | gust MPH | rain 1hr in | rain 24hr in | rain mn in | humidity % | barometer mb |
| 20260504225802 | 71 | 237 | 5.0 | 14.0 | 0.00 | 0.00 | 0.00 | 60 | 1013.6 |
| 20260504224803 | 71 | 239 | 6.0 | 14.0 | 0.00 | 0.00 | 0.00 | 62 | 1013.7 |
| 20260504222803 | 70 | 236 | 8.0 | 14.0 | 0.00 | 0.00 | 0.00 | 65 | 1014.2 |
| 20260504221803 | 70 | 245 | 7.0 | 14.0 | 0.00 | 0.00 | 0.00 | 65 | 1014.4 |
| 20260504215803 | 70 | 232 | 6.0 | 16.0 | 0.00 | 0.00 | 0.00 | 67 | 1014.4 |
| 20260504214803 | 70 | 231 | 6.0 | 16.0 | 0.00 | 0.00 | 0.00 | 68 | 1014.4 |
| 20260504212824 | 69 | 235 | 6.0 | 14.0 | 0.00 | 0.00 | 0.00 | 71 | 1014.7 |
| 20260504211824 | 68 | 219 | 5.0 | 14.0 | 0.00 | 0.00 | 0.00 | 73 | 1014.8 |
| 20260504205803 | 67 | 224 | 6.0 | 13.0 | 0.00 | 0.00 | 0.00 | 71 | 1014.8 |
| 20260504204824 | 68 | 214 | 4.0 | 13.0 | 0.00 | 0.00 | 0.00 | 70 | 1014.7 |
| 20260504202802 | 67 | 229 | 4.0 | 10.0 | 0.00 | 0.00 | 0.00 | 74 | 1014.8 |
| 20260504201803 | 67 | 231 | 4.0 | 10.0 | 0.00 | 0.00 | 0.00 | 72 | 1014.7 |
| 20260504195803 | 68 | 217 | 5.0 | 13.0 | 0.00 | 0.00 | 0.00 | 67 | 1014.8 |
| 20260504194802 | 69 | 231 | 6.0 | 16.0 | 0.00 | 0.00 | 0.00 | 68 | 1015.0 |
| 20260504192824 | 69 | 228 | 5.0 | 12.0 | 0.00 | 0.00 | 0.00 | 67 | 1015.1 |
| 20260504191823 | 69 | 242 | 5.0 | 10.0 | 0.00 | 0.00 | 0.00 | 65 | 1015.1 |
| 20260504185803 | 67 | 225 | 4.0 | 11.0 | 0.00 | 0.00 | 0.00 | 67 | 1015.0 |
| 20260504184803 | 69 | 226 | 5.0 | 10.0 | 0.00 | 0.00 | 0.00 | 66 | 1015.2 |
| 20260504182802 | 69 | 227 | 4.0 | 11.0 | 0.00 | 0.00 | 0.00 | 66 | 1015.0 |
| 20260504181803 | 69 | 211 | 3.0 | 7.0 | 0.00 | 0.00 | 0.00 | 67 | 1015.1 |
| 20260504175802 | 69 | 227 | 4.0 | 12.0 | 0.00 | 0.00 | 0.00 | 67 | 1015.4 |
| 20260504174803 | 70 | 222 | 4.0 | 9.0 | 0.00 | 0.00 | 0.00 | 64 | 1015.3 |
| 20260504172803 | 70 | 274 | 4.0 | 9.0 | 0.00 | 0.00 | 0.00 | 63 | 1014.9 |
| 20260504171802 | 70 | 198 | 1.0 | 7.0 | 0.00 | 0.00 | 0.00 | 64 | 1015.0 |
| 20260504081803 | 60 | 42 | 1.0 | 2.0 | 0.00 | 0.00 | 0.00 | 79 | 1014.5 |
| 20260504045802 | 62 | 284 | 2.0 | 5.0 | 0.00 | 0.00 | 0.00 | 76 | 1014.2 |
| 20260504044803 | 62 | 278 | 4.0 | 6.0 | 0.00 | 0.00 | 0.00 | 77 | 1014.2 |
| 20260504042803 | 62 | 271 | 1.0 | 5.0 | 0.00 | 0.00 | 0.00 | 76 | 1014.1 |
| 20260504041802 | 62 | 279 | 1.0 | 6.0 | 0.00 | 0.00 | 0.00 | 76 | 1013.9 |
| 20260504035824 | 62 | 301 | 3.0 | 7.0 | 0.00 | 0.00 | 0.00 | 76 | 1013.6 |
| 20260504034803 | 62 | 276 | 4.0 | 7.0 | 0.00 | 0.00 | 0.00 | 76 | 1013.7 |
| 20260504032802 | 62 | 278 | 3.0 | 9.0 | 0.00 | 0.00 | 0.00 | 76 | 1013.3 |
| 20260504031803 | 62 | 284 | 5.0 | 11.0 | 0.00 | 0.00 | 0.00 | 76 | 1013.1 |
| 20260504025803 | 63 | 287 | 6.0 | 10.0 | 0.00 | 0.00 | 0.00 | 75 | 1013.1 |
| 20260504024803 | 63 | 286 | 2.0 | 9.0 | 0.00 | 0.00 | 0.00 | 75 | 1012.8 |
| 20260504022803 | 64 | 252 | 3.0 | 9.0 | 0.00 | 0.00 | 0.00 | 72 | 1012.8 |
| 20260504021803 | 64 | 236 | 3.0 | 11.0 | 0.00 | 0.00 | 0.00 | 71 | 1012.7 |
| 20260504015802 | 65 | 231 | 4.0 | 9.0 | 0.00 | 0.00 | 0.00 | 68 | 1012.5 |
| 20260504014803 | 66 | 224 | 3.0 | 10.0 | 0.00 | 0.00 | 0.00 | 68 | 1012.3 |
| 20260504012802 | 66 | 256 | 4.0 | 9.0 | 0.00 | 0.00 | 0.00 | 69 | 1012.1 |
| 20260504011803 | 66 | 247 | 3.0 | 10.0 | 0.00 | 0.00 | 0.00 | 71 | 1012.2 |
| 20260504005802 | 66 | 300 | 2.0 | 11.0 | 0.00 | 0.00 | 0.00 | 71 | 1011.9 |
| 20260504004803 | 66 | 310 | 4.0 | 10.0 | 0.00 | 0.00 | 0.00 | 72 | 1011.9 |
| 20260504002803 | 66 | 282 | 4.0 | 12.0 | 0.00 | 0.00 | 0.00 | 71 | 1012.0 |
| 20260504001803 | 67 | 276 | 4.0 | 12.0 | 0.00 | 0.00 | 0.00 | 70 | 1011.9 |
| 20260503235607 | 67 | 299 | 4.0 | 0.0 | 0.00 | 0.00 | 0.00 | 68 | 1011.6 |
| 20260503234803 | 68 | 241 | 3.0 | 13.0 | 0.00 | 0.00 | 0.00 | 68 | 1011.6 |
| 20260503232802 | 70 | 232 | 5.0 | 10.0 | 0.00 | 0.00 | 0.00 | 65 | 1011.8 |
| 20260503231824 | 71 | 231 | 3.0 | 7.0 | 0.00 | 0.00 | 0.00 | 64 | 1011.9 |